QTR31J KIAH-OTHH

Flight info

Callsign QTR31J
Flight time N/A
Altitude 34000
Route LURIC8 ORRTH DCT HEGOG DCT SQS DCT GAGYE DCT LANER DCT KT30O DCT GEKCO DCT VXV DCT MOCCA DCT DANCO DCT MOL DCT GVE Q127 BUKYY DCT JAYBO DCT SIE DCT DRIFT Q439 MANTA DCT MONEY DCT KN63E DCT DOVEY/M084F350 NATY NASBA DCT GUNSO DCT TULTA/N0491F350 DCT TURDO DCT NOVAN DCT GALOF/N0490F360 DCT BOLGU DCT PECNO DCT VALKU/N0490F370 DCT TIS UP860 BALSI UY11 ROBEX DCT LAPRI/N0490F360 DCT MOGBO/N0489F370 DCT MIRAX/N0491F360 DCT IBLUN/N0488F370 DCT AVCUP DCT BELOV DCT IPKIS DCT SIRMI DCT RIVUS DCT TORTO DCT RAMAP DCT NISVA DCT SOPIS DCT DOWEC DCT BGS Q29 ARTAT UP975 ERGUN DCT SELCI DCT ASVOD/N0492F390 UL124 EVSAS UM688 RATVO M688 KEDIM DCT TOTAM DCT VAXEN DCT SISIN DCT ILMAP DCT ULDUR M688 SIDAD P975 LONOS L703 HAYYA HAYA1V
Aircraft A35K/H-VGDW/C

Departure

Time 2025-09-05 00:01
Airport George Bush Intercontinental Airport (KIAH)

Arrival

Time N/A
Airport Hamad International Airport (OTHH)
Time Latitude Longitude Altitude Speed Heading
2025-09-04 23:52 29.98993 -95.34115 113 ft 0 kts 270°
2025-09-04 23:54 29.98987 -95.34026 113 ft 3 kts 291°
2025-09-04 23:54 29.98969 -95.33991 113 ft 3 kts 326°
2025-09-04 23:55 29.98950 -95.33981 113 ft 1 kts 360°
2025-09-04 23:55 29.99011 -95.33980 110 ft 9 kts 359°
2025-09-04 23:56 29.99176 -95.34126 113 ft 12 kts 268°
2025-09-04 23:57 29.99179 -95.34454 113 ft 16 kts 269°
2025-09-04 23:57 29.99178 -95.34785 113 ft 23 kts 269°
2025-09-04 23:58 29.99176 -95.35190 113 ft 21 kts 269°
2025-09-04 23:58 29.99125 -95.35474 111 ft 17 kts 199°
2025-09-04 23:59 29.98934 -95.35503 111 ft 16 kts 207°
2025-09-04 23:59 29.98868 -95.35601 109 ft 16 kts 241°
2025-09-04 23:59 29.98589 -95.35666 111 ft 56 kts 152°
2025-09-05 00:00 29.97156 -95.34790 111 ft 171 kts 152°
2025-09-05 00:01 29.93870 -95.33794 1368 ft 196 kts 208°
2025-09-05 00:01 29.92864 -95.36778 1743 ft 231 kts 288°
2025-09-05 00:02 29.95455 -95.38907 1849 ft 258 kts
2025-09-05 00:02 29.98608 -95.34158 2741 ft 274 kts 84°
2025-09-05 00:02 29.99052 -95.31999 3102 ft 279 kts 71°
2025-09-05 00:03 30.02346 -95.28138 4388 ft 278 kts 19°
2025-09-05 00:03 30.09698 -95.25202 6175 ft 285 kts 32°
2025-09-05 00:04 30.16287 -95.19953 7922 ft 291 kts 34°
2025-09-05 00:05 30.26401 -95.11850 10276 ft 303 kts 34°
2025-09-05 00:05 30.33781 -95.05932 10955 ft 346 kts 34°
2025-09-05 00:05 30.37847 -95.02666 11265 ft 366 kts 34°
2025-09-05 00:06 30.51220 -94.92337 12847 ft 395 kts 32°
2025-09-05 00:06 30.55833 -94.88804 13524 ft 399 kts 32°
2025-09-05 00:07 30.65197 -94.81611 14755 ft 408 kts 32°
2025-09-05 00:07 30.74710 -94.74288 15949 ft 416 kts 32°
2025-09-05 00:08 30.84463 -94.66758 17041 ft 425 kts 32°
2025-09-05 00:09 30.99432 -94.55167 18588 ft 436 kts 32°
2025-09-05 00:09 31.09603 -94.47279 19579 ft 442 kts 32°
2025-09-05 00:10 31.19856 -94.39308 20516 ft 449 kts 32°
2025-09-05 00:10 31.30322 -94.31137 21446 ft 455 kts 32°
2025-09-05 00:10 31.35596 -94.27013 21923 ft 458 kts 32°
2025-09-05 00:11 31.46273 -94.18646 22868 ft 464 kts 32°
2025-09-05 00:12 31.63115 -94.05402 24293 ft 473 kts 32°
2025-09-05 00:17 32.07086 -93.49391 28759 ft 513 kts 50°
2025-09-05 00:21 32.41454 -92.96262 32691 ft 506 kts 50°
2025-09-05 00:23 32.59770 -92.65208 32878 ft 522 kts 60°
2025-09-05 00:25 32.71563 -92.38312 32878 ft 525 kts 60°
2025-09-05 00:31 33.13344 -91.42381 32869 ft 513 kts 61°
2025-09-05 00:33 33.23420 -91.09748 32862 ft 531 kts 69°
2025-09-05 00:34 33.31400 -90.81515 34837 ft 506 kts 69°
2025-09-05 00:37 33.41606 -90.45033 34869 ft 522 kts 70°
2025-09-05 00:38 33.50572 -90.16650 34879 ft 512 kts 63°
2025-09-05 00:41 33.63731 -89.81869 34888 ft 509 kts 63°
2025-09-05 00:42 33.73858 -89.54778 34897 ft 508 kts 64°
2025-09-05 00:45 33.86780 -89.19878 34897 ft 509 kts 64°
2025-09-05 00:46 33.94692 -88.98332 34903 ft 507 kts 64°
2025-09-05 00:49 34.02248 -88.77608 34896 ft 508 kts 64°
2025-09-05 00:51 34.06665 -88.64614 34897 ft 509 kts 67°
2025-09-05 00:53 34.12920 -88.45529 34895 ft 516 kts 66°
2025-09-05 00:55 34.22722 -88.15779 34897 ft 513 kts 66°
2025-09-05 00:57 34.42340 -87.55269 34934 ft 523 kts 66°
2025-09-05 00:59 34.58214 -87.10833 34925 ft 523 kts 62°
2025-09-05 01:01 34.68131 -86.84891 34914 ft 524 kts 62°
2025-09-05 01:02 34.76633 -86.62469 34925 ft 524 kts 62°